Location: doobydoo
(53.3403°N, 2.6908°W)
Time: 10:57:59
(UTC+00:00)

ISS - Pass Details

Date: 03 December 2021
Orbit: 413 x 422 km, 51.6° (Epoch: 28 January)

Event Time Altitude Azimuth Distance (km) Brightness Sun altitude
Rises 19:08:25 0° 278° (W) 2,386 1.3 -27.6°
Reaches altitude 10° 19:11:01 10° 258° (WSW) 1,514 0.0 -28.0°
Enters shadow 19:12:29 16° 234° (SW) 1,204 -0.9 -28.3°
